Boneville, GA

10:00 PM EDT on September 29, 2016 (GMT -0400)
Thomson-McDuffie County

Weather History for KHQU - November, 2012

Change the Weather History Date:

Friday, November 2, 2012

  Actual Average (KDBN) Record (KDBN)
Temperature  
Mean Temperature 55 °F -  
Max Temperature 74 °F 75 °F 89 °F (1961)
Min Temperature 36 °F 49 °F 27 °F (1930)
Degree Days  
Heating Degree Days 10    
Growing Degree Days 5 (Base 50)    
Moisture  
Dew Point 39 °F    
Average Humidity 57    
Maximum Humidity 90    
Minimum Humidity 35    
Precipitation  
Precipitation 0.00 in - - ()
Sea Level Pressure  
Sea Level Pressure 29.99 in    
Wind  
Wind Speed 4 mph (West)    
Max Wind Speed 17 mph    
Max Gust Speed 24 mph    
Visibility 10 miles    
Events      
Averages and records for this station are not official NWS values.
T = Trace of Precipitation, MM = Missing Value Source: NWS Daily Summary

Daily Weather History Graph

Daily Weather History Graph

Search for Another Location

Airport or City:

Trip Planner

Search our weather history database for the weather conditions in past years. The results will help you decide how hot, cold, wet, or windy it might be!

Date:

Astronomy

Nov. 02, 2012 Rise Set
Actual Time 7:50 AM EDT 6:36 PM EDT
Civil Twilight 7:24 AM EDT 7:02 PM EDT
Nautical Twilight 6:54 AM EDT 7:31 PM EDT
Astronomical Twilight 6:25 AM EDT 8:00 PM EDT
Moon 9:28 PM EDT (11/2) 11:03 AM EDT (11/2)
Length of Visible Light 11h 37m
Length of Day
10h 46m
Waning Gibbous, 87% of the Moon is Illuminated
Nov 2
Waning Gibbous
Nov 6
Last Quarter
Nov 13
New
Nov 20
First Quarter
Nov 28
Full

Hourly Weather History & Observations

Time (EDT) Temp. Windchill Dew Point Humidity Pressure Visibility Wind Dir Wind Speed Gust Speed Precip Events Conditions
12:15 AM 46.4 °F 45.2 °F 26.2 °F 45% 30.01 in 10.0 mi WNW 3.5 mph - N/A   Clear
12:35 AM 44.6 °F - 27.7 °F 52% 30.01 in 10.0 mi Calm Calm - N/A   Clear
12:55 AM 44.2 °F - 28.4 °F 54% 30.01 in 10.0 mi Calm Calm - N/A   Clear
1:15 AM 42.3 °F - 28.9 °F 59% 30.01 in 10.0 mi Calm Calm - N/A   Clear
1:35 AM 42.8 °F 41.1 °F 28.0 °F 56% 30.01 in 10.0 mi West 3.5 mph - N/A   Clear
1:55 AM 41.2 °F - 30.6 °F 66% 30.01 in 10.0 mi Calm Calm - N/A   Clear
2:15 AM 41.5 °F - 30.0 °F 64% 30.01 in 10.0 mi Calm Calm - N/A   Clear
2:35 AM 41.0 °F - 29.7 °F 64% 30.03 in 10.0 mi Calm Calm - N/A   Clear
2:55 AM 40.8 °F - 29.5 °F 64% 30.01 in 10.0 mi Calm Calm - N/A   Clear
3:15 AM 40.3 °F - 29.8 °F 66% 30.01 in 10.0 mi Calm Calm - N/A   Clear
3:35 AM 39.6 °F - 30.2 °F 69% 30.01 in 10.0 mi Calm Calm - N/A   Clear
3:55 AM 39.6 °F - 30.6 °F 70% 30.01 in 10.0 mi Calm Calm - N/A   Scattered Clouds
4:15 AM 40.3 °F - 30.2 °F 67% 30.01 in 10.0 mi Calm Calm - N/A   Overcast
4:35 AM 41.0 °F - 32.2 °F 71% 30.00 in 10.0 mi Calm Calm - N/A   Overcast
4:55 AM 42.4 °F - 33.6 °F 71% 30.00 in 10.0 mi Calm Calm - N/A   Overcast
5:15 AM 42.4 °F - 32.2 °F 67% 30.01 in 10.0 mi Calm Calm - N/A   Mostly Cloudy
5:35 AM 42.1 °F - 31.8 °F 67% 30.01 in 10.0 mi Calm Calm - N/A   Scattered Clouds
5:55 AM 40.6 °F - 32.2 °F 72% 30.01 in 10.0 mi Calm Calm - N/A   Clear
6:15 AM 40.1 °F - 30.9 °F 70% 30.01 in 10.0 mi Calm Calm - N/A   Clear
6:35 AM 39.9 °F - 31.6 °F 72% 30.01 in 10.0 mi Calm Calm - N/A   Clear
6:55 AM 38.7 °F - 31.8 °F 76% 30.03 in 10.0 mi Calm Calm - N/A   Clear
7:15 AM 38.3 °F - 31.8 °F 77% 30.03 in 10.0 mi Calm Calm - N/A   Clear
7:35 AM 36.7 °F - 31.6 °F 82% 30.03 in 10.0 mi Calm Calm - N/A   Clear
7:55 AM 36.9 °F - 31.1 °F 80% 30.03 in 10.0 mi Calm Calm - N/A   Clear
8:15 AM 37.4 °F - 32.2 °F 81% 30.03 in 10.0 mi Calm Calm - N/A   Clear
8:35 AM 40.6 °F - 32.4 °F 72% 30.03 in 10.0 mi Calm Calm - N/A   Clear
8:55 AM 44.4 °F - 33.6 °F 66% 30.04 in 10.0 mi Calm Calm - N/A   Clear
9:15 AM 49.6 °F - 34.7 °F 56% 30.03 in 10.0 mi SSW 4.6 mph - N/A   Clear
9:55 AM 54.0 °F - 36.0 °F 51% 30.04 in 10.0 mi WSW 6.9 mph - N/A   Clear
10:15 AM 56.8 °F - 37.6 °F 49% 30.04 in 10.0 mi WSW 3.5 mph - N/A   Clear
10:35 AM 59.9 °F - 38.8 °F 46% 30.03 in 10.0 mi West 8.1 mph - N/A   Clear
10:55 AM 61.7 °F - 39.7 °F 44% 30.03 in 10.0 mi West 8.1 mph - N/A   Clear
11:15 AM 62.6 °F - 40.3 °F 44% 30.03 in 10.0 mi West 8.1 mph - N/A   Clear
11:35 AM 64.2 °F - 41.4 °F 43% 30.02 in 10.0 mi West 10.4 mph 16.1 mph N/A   Clear
11:55 AM 66.4 °F - 42.6 °F 42% 30.01 in 10.0 mi West 15.0 mph 20.7 mph N/A   Clear
12:15 PM 67.6 °F - 42.6 °F 40% 30.01 in 10.0 mi West 13.8 mph 20.7 mph N/A   Clear
12:35 PM 68.5 °F - 43.0 °F 40% 30.00 in 10.0 mi WSW 11.5 mph 21.9 mph N/A   Clear
12:55 PM 70.3 °F - 42.4 °F 36% 29.99 in 10.0 mi WNW 13.8 mph 20.7 mph N/A   Clear
1:15 PM 70.3 °F - 42.8 °F 37% 29.98 in 10.0 mi West 11.5 mph 18.4 mph N/A   Clear
1:35 PM 71.1 °F - 42.8 °F 36% 29.97 in 10.0 mi West 13.8 mph 20.7 mph N/A   Clear
1:55 PM 71.6 °F - 43.5 °F 36% 29.96 in 10.0 mi WSW 12.7 mph 23.0 mph N/A   Clear
2:15 PM 72.7 °F - 43.9 °F 36% 29.95 in 10.0 mi WSW 12.7 mph 19.6 mph N/A   Clear
2:35 PM 72.9 °F - 43.7 °F 35% 29.94 in 10.0 mi SW 13.8 mph 20.7 mph N/A   Clear
2:55 PM 73.6 °F - 44.2 °F 35% 29.93 in 10.0 mi WSW 10.4 mph 18.4 mph N/A   Clear
3:15 PM 73.9 °F - 44.6 °F 35% 29.92 in 10.0 mi West 15.0 mph 20.7 mph N/A   Clear
3:35 PM 74.3 °F - 44.6 °F 35% 29.92 in 10.0 mi West 17.3 mph 21.9 mph N/A   Clear
3:55 PM 74.1 °F - 45.1 °F 35% 29.92 in 10.0 mi West 17.3 mph 24.2 mph N/A   Clear
4:15 PM 74.3 °F - 45.3 °F 36% 29.92 in 10.0 mi West 12.7 mph 19.6 mph N/A   Clear
4:35 PM 74.7 °F - 45.7 °F 36% 29.92 in 10.0 mi West 17.3 mph 23.0 mph N/A   Clear
4:55 PM 74.3 °F - 45.7 °F 36% 29.92 in 10.0 mi WNW 15.0 mph 20.7 mph N/A   Clear
5:15 PM 73.6 °F - 45.9 °F 37% 29.92 in 10.0 mi West 15.0 mph 21.9 mph N/A   Clear
5:35 PM 73.0 °F - 46.6 °F 39% 29.92 in 10.0 mi West 8.1 mph 21.9 mph N/A   Clear
5:55 PM 72.5 °F - 47.1 °F 40% 29.93 in 10.0 mi West 9.2 mph 17.3 mph N/A   Clear
6:15 PM 71.1 °F - 47.1 °F 42% 29.93 in 10.0 mi WSW 8.1 mph - N/A   Clear
6:35 PM 69.1 °F - 47.3 °F 46% 29.94 in 10.0 mi WSW 9.2 mph - N/A   Clear
6:55 PM 68.2 °F - 47.3 °F 47% 29.94 in 10.0 mi West 8.1 mph - N/A   Clear
7:15 PM 66.0 °F - 47.3 °F 51% 29.95 in 10.0 mi WSW 6.9 mph - N/A   Clear
7:35 PM 64.8 °F - 47.3 °F 53% 29.95 in 10.0 mi WSW 8.1 mph - N/A   Clear
7:55 PM 65.5 °F - 47.3 °F 52% 29.96 in 10.0 mi WSW 5.8 mph - N/A   Clear
8:15 PM 64.9 °F - 47.3 °F 53% 29.97 in 10.0 mi West 3.5 mph - N/A   Clear
8:35 PM 60.1 °F - 47.3 °F 63% 29.97 in 10.0 mi Calm Calm - N/A   Clear
8:55 PM 57.9 °F - 47.1 °F 67% 29.98 in 10.0 mi Calm Calm - N/A   Clear
9:15 PM 56.3 °F - 47.3 °F 72% 29.99 in 10.0 mi Calm Calm - N/A   Clear
9:35 PM 55.2 °F - 46.8 °F 73% 29.99 in 10.0 mi Calm Calm - N/A   Clear
9:55 PM 53.6 °F - 46.4 °F 77% 29.99 in 10.0 mi Calm Calm - N/A   Clear
10:15 PM 52.9 °F - 46.2 °F 78% 30.00 in 10.0 mi Calm Calm - N/A   Clear
10:35 PM 51.3 °F - 46.4 °F 83% 30.00 in 10.0 mi Calm Calm - N/A   Clear
10:55 PM 50.9 °F - 46.0 °F 83% 30.01 in 10.0 mi Calm Calm - N/A   Clear
11:15 PM 50.0 °F - 45.5 °F 85% 30.01 in 10.0 mi Calm Calm - N/A   Clear
11:35 PM 48.4 °F - 45.0 °F 88% 30.02 in 10.0 mi Calm Calm - N/A   Clear
11:55 PM 47.8 °F - 45.0 °F 90% 30.03 in 10.0 mi Calm Calm - N/A   Clear